Satellite-Ground Cal/Val Site Overpasses Predictions

Prediction of Satellite NPP Overpassing Cal/Val Site: Antarctic Dome C

Ground Cal/Val Site Location: Latitude: -75.10, Longitude: 123.35; Satellite-Ground Site NADIR distance within 100 km.

Table of predicted overpasses for the next 14.0 days since TLE Epoch: 1/8/2013
Interval Starting Time Ending Time Minimum Distance Time Minimum Distance (km)
1 01/09/2013 07:41:53 01/09/2013 07:42:14 01/09/2013 07:42:04 68.28
2 01/10/2013 07:23:01 01/10/2013 07:23:28 01/10/2013 07:23:14 39.88
3 01/12/2013 15:05:25 01/12/2013 15:05:34 01/12/2013 15:05:29 94.51
4 01/13/2013 14:46:25 01/13/2013 14:46:54 01/13/2013 14:46:39 16.69
5 01/15/2013 07:29:13 01/15/2013 07:29:43 01/15/2013 07:29:28 3.44
6 01/18/2013 14:52:39 01/18/2013 14:53:08 01/18/2013 14:52:54 19.45
7 01/19/2013 14:33:57 01/19/2013 14:34:11 01/19/2013 14:34:04 87.46
8 01/20/2013 07:35:29 01/20/2013 07:35:56 01/20/2013 07:35:42 32.42


NCC Satellite Cal/Val Overpasses Prediction Service
